Ellen Mcallister — WDG3673 — position and weather

sailwx.info

Track history (hours):
 
Tides and Currents Weather Stations Pressure Air Temp Water Temp Dewpoint Dewpoint Depression Visibility Wind Speed Wind Dir Waves Ship Positions

Ellen Mcallister

Owner: McAllister Towing & Transportation Inc., Staten Island, NY. More information available from US FCC via Universal Licensing System and Coast Guard Vessel Documentation Center.

Last reported at 2018-Jan-20 17:40 UTC. Time now 2018-Jan-20 21:19 UTC.
Position N 40°35' W 074°12'.

Length 35 m; draft 5 m.

Type: Tug. MMSI: 366836590.

Date/timePositionNaut miles runAvg speedWind from/ knotsBaromVisibWave heightAir tempDewpointWater temp
2018-Jan-20 17:40N 40°35' W 074°12'0 0.5
2018-Jan-20 16:50N 40°35' W 074°13'1 2.3
2018-Jan-20 16:21N 40°36' W 074°12'2 5.7
2018-Jan-20 16:00N 40°38' W 074°12'2 3.3
2018-Jan-20 15:30N 40°38' W 074°10'0 0.0
2018-Jan-20 15:00N 40°38' W 074°10'0 0.0
2018-Jan-20 14:30N 40°38' W 074°10'1 1.8
2018-Jan-20 14:00N 40°39' W 074°09'2 4.1
2018-Jan-20 13:30N 40°41' W 074°08'1 1.6
2018-Jan-20 12:59N 40°40' W 074°09'0 0.4
2018-Jan-20 12:30N 40°40' W 074°09'2 3.6
2018-Jan-20 12:00N 40°41' W 074°08'0 0.3
2018-Jan-20 11:30N 40°41' W 074°08'3 6.2
2018-Jan-20 11:00N 40°39' W 074°06'2 4.3
2018-Jan-20 10:29N 40°39' W 074°09'1 2.1
2018-Jan-20 10:00N 40°39' W 074°10'1 1.9
2018-Jan-20 09:30N 40°39' W 074°11'1 2.2
2018-Jan-20 09:00N 40°38' W 074°10'0 0.0
2018-Jan-20 08:30N 40°38' W 074°10'0 0.0
2018-Jan-20 08:00N 40°38' W 074°10'0 0.0
2018-Jan-20 07:30N 40°38' W 074°10'0 0.1
2018-Jan-20 07:00N 40°38' W 074°10'0 0.1
2018-Jan-20 06:30N 40°38' W 074°10'0 0.0
2018-Jan-20 06:00N 40°38' W 074°10'0 0.0
2018-Jan-20 05:31N 40°38' W 074°10'0 0.0
2018-Jan-20 05:00N 40°38' W 074°10'0 0.0
2018-Jan-20 04:30N 40°38' W 074°10'0 0.0
2018-Jan-20 04:00N 40°38' W 074°10'0 0.0
2018-Jan-20 03:30N 40°38' W 074°10'0 0.0
2018-Jan-20 03:00N 40°38' W 074°10'0 0.0
2018-Jan-20 02:30N 40°38' W 074°10'0 0.0
2018-Jan-20 02:00N 40°38' W 074°10'0 0.0
2018-Jan-20 01:30N 40°38' W 074°10'0 0.0
2018-Jan-20 01:00N 40°38' W 074°10'0 0.0
2018-Jan-20 00:30N 40°38' W 074°10'0 0.0
2018-Jan-20 00:00N 40°38' W 074°10'0 0.0
2018-Jan-19 23:31N 40°38' W 074°10'0 0.0
2018-Jan-19 23:00N 40°38' W 074°10'3 5.1
2018-Jan-19 22:30N 40°41' W 074°09'0 0.2
2018-Jan-19 22:00N 40°41' W 074°09'2 4.6
2018-Jan-19 21:30N 40°39' W 074°09'3 5.4
2018-Jan-19 21:00N 40°39' W 074°06'0 0.0
2018-Jan-19 20:31N 40°39' W 074°06'3 4.9
2018-Jan-19 20:00N 40°39' W 074°09'1 2.2
2018-Jan-19 19:30N 40°40' W 074°08'0 0.0
2018-Jan-19 19:00N 40°40' W 074°08'0 0.0
2018-Jan-19 18:30N 40°40' W 074°08'0 0.0
2018-Jan-19 18:00N 40°40' W 074°08'0 0.0
2018-Jan-19 17:31N 40°40' W 074°08'4 6.4
2018-Jan-19 16:55N 40°38' W 074°12'2 4.0
2018-Jan-19 16:30N 40°36' W 074°12'0 0.0
2018-Jan-19 16:00N 40°36' W 074°12'0 0.0
2018-Jan-19 15:30N 40°36' W 074°12'1 2.4
2018-Jan-19 14:59N 40°35' W 074°13'0 0.0
2018-Jan-19 14:30N 40°35' W 074°13'0 0.9
2018-Jan-19 13:59N 40°35' W 074°12'2 5.0
2018-Jan-19 13:30N 40°38' W 074°12'3 4.7
2018-Jan-19 12:56N 40°39' W 074°09'1 2.8
2018-Jan-19 12:28N 40°39' W 074°07'3 6.4
2018-Jan-19 12:00N 40°39' W 074°11'0 0.6
2018-Jan-19 11:30N 40°39' W 074°11'1 1.9
2018-Jan-19 11:00N 40°39' W 074°10'3 5.4
2018-Jan-19 10:30N 40°39' W 074°07'3 6.0
2018-Jan-19 10:00N 40°38' W 074°03'5 9.2
2018-Jan-19 09:30N 40°38' W 074°09'1 1.3
2018-Jan-19 09:00N 40°38' W 074°10'0 0.0
2018-Jan-19 08:30N 40°38' W 074°10'0 0.0
2018-Jan-19 08:01N 40°38' W 074°10'0 0.0
2018-Jan-19 07:30N 40°38' W 074°10'1 2.1
2018-Jan-19 07:00N 40°39' W 074°08'0 0.9
2018-Jan-19 06:30N 40°39' W 074°09'1 2.0
2018-Jan-19 05:59N 40°40' W 074°09'0 0.4
2018-Jan-19 05:30N 40°40' W 074°09'1 2.6
2018-Jan-19 05:00N 40°38' W 074°10'0 0.0
2018-Jan-19 04:30N 40°38' W 074°10'0 0.2
2018-Jan-19 04:00N 40°38' W 074°10'1 2.3
2018-Jan-19 03:30N 40°39' W 074°08'2 3.4
2018-Jan-19 03:00N 40°40' W 074°08'2 3.3
2018-Jan-19 02:30N 40°42' W 074°09'0 0.0
2018-Jan-19 01:59N 40°42' W 074°09'1 3.0
2018-Jan-19 01:30N 40°40' W 074°08'2 4.9
2018-Jan-19 01:00N 40°38' W 074°10'0 0.0
2018-Jan-19 00:30N 40°38' W 074°10'0 0.0
2018-Jan-18 23:59N 40°38' W 074°10'0 0.0
2018-Jan-18 23:30N 40°38' W 074°10'0 0.0
2018-Jan-18 22:59N 40°38' W 074°10'0 0.0
2018-Jan-18 22:30N 40°38' W 074°10'0 0.0
2018-Jan-18 22:00N 40°38' W 074°10'0 0.0
2018-Jan-18 21:30N 40°38' W 074°10'0 0.0
2018-Jan-18 21:00N 40°38' W 074°10'1 1.7
2018-Jan-18 20:30N 40°39' W 074°09'1 2.5
2018-Jan-18 20:00N 40°40' W 074°08'0 0.1
2018-Jan-18 19:29N 40°40' W 074°08'0 0.0
2018-Jan-18 18:59N 40°40' W 074°08'2 3.6
2018-Jan-18 18:30N 40°39' W 074°09'1 1.2
2018-Jan-18 17:59N 40°38' W 074°10'0 0.0
2018-Jan-18 17:30N 40°38' W 074°10'0 0.0
2018-Jan-18 17:00N 40°38' W 074°10'0 0.0
2018-Jan-18 16:30N 40°38' W 074°10'0 0.0
2018-Jan-18 15:59N 40°38' W 074°10'0 0.0
2018-Jan-18 15:30N 40°38' W 074°10'0 0.0
2018-Jan-18 14:59N 40°38' W 074°10'0 0.0
2018-Jan-18 14:30N 40°38' W 074°10'0 0.0
2018-Jan-18 14:00N 40°38' W 074°10'3 5.8
2018-Jan-18 13:30N 40°41' W 074°08'1 2.0
2018-Jan-18 12:59N 40°42' W 074°09'1 0.4
2018-Jan-18 10:28N 40°41' W 074°08'3 5.5
2018-Jan-18 10:00N 40°39' W 074°08'4 7.5
2018-Jan-18 09:30N 40°39' W 074°04'1 2.2
2018-Jan-18 08:59N 40°40' W 074°04'3 5.0
2018-Jan-18 08:21N 40°39' W 074°08'1 0.6
2018-Jan-18 06:08N 40°38' W 074°10'110.3
2018-Jan-18 06:00N 40°39' W 074°08'0 0.6
2018-Jan-18 05:30N 40°39' W 074°08'3 5.3
2018-Jan-18 05:00N 40°41' W 074°08'1 1.4
2018-Jan-18 04:27N 40°42' W 074°08'3 7.0
2018-Jan-18 04:00N 40°39' W 074°08'510.3
2018-Jan-18 03:31N 40°41' W 074°02'3 6.5
2018-Jan-18 03:00N 40°42' W 073°59'0 0.1
2018-Jan-18 02:30N 40°42' W 073°58'1 2.6
2018-Jan-18 02:00N 40°42' W 074°00'510.1
2018-Jan-18 01:30N 40°39' W 074°05'3 6.7
2018-Jan-18 01:00N 40°38' W 074°10'0 0.0
2018-Jan-18 00:01N 40°38' W 074°10'0 0.0
2018-Jan-17 23:57N 40°38' W 074°10'  
2018-Jan-12 14:59N 40°39' W 074°09'3 6.0
2018-Jan-12 14:30N 40°39' W 074°05'2 3.9
2018-Jan-12 13:58N 40°38' W 074°03'0 0.3
2018-Jan-12 13:30N 40°38' W 074°03'4 8.2
2018-Jan-12 12:59N 40°39' W 074°08'1 2.1
2018-Jan-12 12:30N 40°38' W 074°10'1 2.5
2018-Jan-12 11:59N 40°39' W 074°09'1 1.7
2018-Jan-12 11:30N 40°40' W 074°08'2 4.2
2018-Jan-12 11:00N 40°39' W 074°06'1 1.9
2018-Jan-12 10:30N 40°39' W 074°05'0 0.0
2018-Jan-12 10:00N 40°39' W 074°05'0 0.7
2018-Jan-12 09:30N 40°39' W 074°05'2 3.6
2018-Jan-12 09:00N 40°38' W 074°03'0 0.2
2018-Jan-12 08:30N 40°38' W 074°03'4 7.5
2018-Jan-12 08:00N 40°39' W 074°08'2 3.1
2018-Jan-12 07:30N 40°38' W 074°10'0 0.0
2018-Jan-12 06:59N 40°38' W 074°10'0 0.0
2018-Jan-12 06:30N 40°38' W 074°10'0 0.0
2018-Jan-12 06:00N 40°38' W 074°10'0 0.0
2018-Jan-12 05:30N 40°38' W 074°10'0 0.0
2018-Jan-12 05:00N 40°38' W 074°10'0 0.0
2018-Jan-12 04:30N 40°38' W 074°10'0 0.2
2018-Jan-12 04:00N 40°38' W 074°10'2 4.1
2018-Jan-12 03:30N 40°39' W 074°07'1 1.6
2018-Jan-12 02:59N 40°39' W 074°08'2 0.6
2018-Jan-11 23:31N 40°39' W 074°11'1 7.6
2018-Jan-11 23:20N 40°39' W 074°09'0 0.3
2018-Jan-11 21:53N 40°39' W 074°08'1 2.8
2018-Jan-11 21:30N 40°40' W 074°09'1 2.2
2018-Jan-11 20:58N 40°41' W 074°09'0 0.9
2018-Jan-11 20:28N 40°40' W 074°08'2 3.6
2018-Jan-11 19:59N 40°39' W 074°08'2 1.4
2018-Jan-11 18:22N 40°41' W 074°08'3 1.6
2018-Jan-11 16:43N 40°38' W 074°09'2 8.9
2018-Jan-11 16:30N 40°39' W 074°07'2 4.4
2018-Jan-11 16:00N 40°38' W 074°04'1 2.5
2018-Jan-11 15:29N 40°39' W 074°06'1 0.9
2018-Jan-11 14:35N 40°39' W 074°07'2 0.9
2018-Jan-11 12:28N 40°38' W 074°09'4 7.6
2018-Jan-11 12:00N 40°39' W 074°05'4 7.7
2018-Jan-11 11:30N 40°41' W 074°01'2 3.9
2018-Jan-11 11:00N 40°42' W 073°58'0 0.4
2018-Jan-11 10:30N 40°42' W 073°59'2 4.4
2018-Jan-11 10:00N 40°42' W 074°01'3 5.5
2018-Jan-11 09:30N 40°39' W 074°03'2 3.7
2018-Jan-11 09:00N 40°39' W 074°06'3 0.5
2018-Jan-11 03:12N 40°38' W 074°09'2 8.4
2018-Jan-11 02:58N 40°39' W 074°07'0 0.1
2018-Jan-11 02:29N 40°39' W 074°07'1 1.6
2018-Jan-11 01:51N 40°39' W 074°05'2 5.1
2018-Jan-11 01:30N 40°38' W 074°03'1 1.8
2018-Jan-11 01:00N 40°39' W 074°04'  
Track history (hours):
 
Tides and Currents Weather Stations Pressure Air Temp Water Temp Dewpoint Dewpoint Depression Visibility Wind Speed Wind Dir Waves Ship Positions

Ellen Mcallister

Owner: McAllister Towing & Transportation Inc., Staten Island, NY. More information available from US FCC via Universal Licensing System and Coast Guard Vessel Documentation Center.

Last reported at 2018-Jan-20 17:40 UTC. Time now 2018-Jan-20 21:19 UTC.
Position N 40°35' W 074°12'.

Length 35 m; draft 5 m.

Type: Tug. MMSI: 366836590.

Date/timePositionNaut miles runAvg speedWind from/ knotsBaromVisibWave heightAir tempDewpointWater temp
2018-Jan-20 17:40N 40°35' W 074°12'0 0.5
2018-Jan-20 16:50N 40°35' W 074°13'1 2.3
2018-Jan-20 16:21N 40°36' W 074°12'2 5.7
2018-Jan-20 16:00N 40°38' W 074°12'2 3.3
2018-Jan-20 15:30N 40°38' W 074°10'0 0.0
2018-Jan-20 15:00N 40°38' W 074°10'0 0.0
2018-Jan-20 14:30N 40°38' W 074°10'1 1.8
2018-Jan-20 14:00N 40°39' W 074°09'2 4.1
2018-Jan-20 13:30N 40°41' W 074°08'1 1.6
2018-Jan-20 12:59N 40°40' W 074°09'0 0.4
2018-Jan-20 12:30N 40°40' W 074°09'2 3.6
2018-Jan-20 12:00N 40°41' W 074°08'0 0.3
2018-Jan-20 11:30N 40°41' W 074°08'3 6.2
2018-Jan-20 11:00N 40°39' W 074°06'2 4.3
2018-Jan-20 10:29N 40°39' W 074°09'1 2.1
2018-Jan-20 10:00N 40°39' W 074°10'1 1.9
2018-Jan-20 09:30N 40°39' W 074°11'1 2.2
2018-Jan-20 09:00N 40°38' W 074°10'0 0.0
2018-Jan-20 08:30N 40°38' W 074°10'0 0.0
2018-Jan-20 08:00N 40°38' W 074°10'0 0.0
2018-Jan-20 07:30N 40°38' W 074°10'0 0.1
2018-Jan-20 07:00N 40°38' W 074°10'0 0.1
2018-Jan-20 06:30N 40°38' W 074°10'0 0.0
2018-Jan-20 06:00N 40°38' W 074°10'0 0.0
2018-Jan-20 05:31N 40°38' W 074°10'0 0.0
2018-Jan-20 05:00N 40°38' W 074°10'0 0.0
2018-Jan-20 04:30N 40°38' W 074°10'0 0.0
2018-Jan-20 04:00N 40°38' W 074°10'0 0.0
2018-Jan-20 03:30N 40°38' W 074°10'0 0.0
2018-Jan-20 03:00N 40°38' W 074°10'0 0.0
2018-Jan-20 02:30N 40°38' W 074°10'0 0.0
2018-Jan-20 02:00N 40°38' W 074°10'0 0.0
2018-Jan-20 01:30N 40°38' W 074°10'0 0.0
2018-Jan-20 01:00N 40°38' W 074°10'0 0.0
2018-Jan-20 00:30N 40°38' W 074°10'0 0.0
2018-Jan-20 00:00N 40°38' W 074°10'0 0.0
2018-Jan-19 23:31N 40°38' W 074°10'0 0.0
2018-Jan-19 23:00N 40°38' W 074°10'3 5.1
2018-Jan-19 22:30N 40°41' W 074°09'0 0.2
2018-Jan-19 22:00N 40°41' W 074°09'2 4.6
2018-Jan-19 21:30N 40°39' W 074°09'3 5.4
2018-Jan-19 21:00N 40°39' W 074°06'0 0.0
2018-Jan-19 20:31N 40°39' W 074°06'3 4.9
2018-Jan-19 20:00N 40°39' W 074°09'1 2.2
2018-Jan-19 19:30N 40°40' W 074°08'0 0.0
2018-Jan-19 19:00N 40°40' W 074°08'0 0.0
2018-Jan-19 18:30N 40°40' W 074°08'0 0.0
2018-Jan-19 18:00N 40°40' W 074°08'0 0.0
2018-Jan-19 17:31N 40°40' W 074°08'4 6.4
2018-Jan-19 16:55N 40°38' W 074°12'2 4.0
2018-Jan-19 16:30N 40°36' W 074°12'0 0.0
2018-Jan-19 16:00N 40°36' W 074°12'0 0.0
2018-Jan-19 15:30N 40°36' W 074°12'1 2.4
2018-Jan-19 14:59N 40°35' W 074°13'0 0.0
2018-Jan-19 14:30N 40°35' W 074°13'0 0.9
2018-Jan-19 13:59N 40°35' W 074°12'2 5.0
2018-Jan-19 13:30N 40°38' W 074°12'3 4.7
2018-Jan-19 12:56N 40°39' W 074°09'1 2.8
2018-Jan-19 12:28N 40°39' W 074°07'3 6.4
2018-Jan-19 12:00N 40°39' W 074°11'0 0.6
2018-Jan-19 11:30N 40°39' W 074°11'1 1.9
2018-Jan-19 11:00N 40°39' W 074°10'3 5.4
2018-Jan-19 10:30N 40°39' W 074°07'3 6.0
2018-Jan-19 10:00N 40°38' W 074°03'5 9.2
2018-Jan-19 09:30N 40°38' W 074°09'1 1.3
2018-Jan-19 09:00N 40°38' W 074°10'0 0.0
2018-Jan-19 08:30N 40°38' W 074°10'0 0.0
2018-Jan-19 08:01N 40°38' W 074°10'0 0.0
2018-Jan-19 07:30N 40°38' W 074°10'1 2.1
2018-Jan-19 07:00N 40°39' W 074°08'0 0.9
2018-Jan-19 06:30N 40°39' W 074°09'1 2.0
2018-Jan-19 05:59N 40°40' W 074°09'0 0.4
2018-Jan-19 05:30N 40°40' W 074°09'1 2.6
2018-Jan-19 05:00N 40°38' W 074°10'0 0.0
2018-Jan-19 04:30N 40°38' W 074°10'0 0.2
2018-Jan-19 04:00N 40°38' W 074°10'1 2.3
2018-Jan-19 03:30N 40°39' W 074°08'2 3.4
2018-Jan-19 03:00N 40°40' W 074°08'2 3.3
2018-Jan-19 02:30N 40°42' W 074°09'0 0.0
2018-Jan-19 01:59N 40°42' W 074°09'1 3.0
2018-Jan-19 01:30N 40°40' W 074°08'2 4.9
2018-Jan-19 01:00N 40°38' W 074°10'0 0.0
2018-Jan-19 00:30N 40°38' W 074°10'0 0.0
2018-Jan-18 23:59N 40°38' W 074°10'0 0.0
2018-Jan-18 23:30N 40°38' W 074°10'0 0.0
2018-Jan-18 22:59N 40°38' W 074°10'0 0.0
2018-Jan-18 22:30N 40°38' W 074°10'0 0.0
2018-Jan-18 22:00N 40°38' W 074°10'0 0.0
2018-Jan-18 21:30N 40°38' W 074°10'0 0.0
2018-Jan-18 21:00N 40°38' W 074°10'1 1.7
2018-Jan-18 20:30N 40°39' W 074°09'1 2.5
2018-Jan-18 20:00N 40°40' W 074°08'0 0.1
2018-Jan-18 19:29N 40°40' W 074°08'0 0.0
2018-Jan-18 18:59N 40°40' W 074°08'2 3.6
2018-Jan-18 18:30N 40°39' W 074°09'1 1.2
2018-Jan-18 17:59N 40°38' W 074°10'0 0.0
2018-Jan-18 17:30N 40°38' W 074°10'0 0.0
2018-Jan-18 17:00N 40°38' W 074°10'0 0.0
2018-Jan-18 16:30N 40°38' W 074°10'0 0.0
2018-Jan-18 15:59N 40°38' W 074°10'0 0.0
2018-Jan-18 15:30N 40°38' W 074°10'0 0.0
2018-Jan-18 14:59N 40°38' W 074°10'0 0.0
2018-Jan-18 14:30N 40°38' W 074°10'0 0.0
2018-Jan-18 14:00N 40°38' W 074°10'3 5.8
2018-Jan-18 13:30N 40°41' W 074°08'1 2.0
2018-Jan-18 12:59N 40°42' W 074°09'1 0.4
2018-Jan-18 10:28N 40°41' W 074°08'3 5.5
2018-Jan-18 10:00N 40°39' W 074°08'4 7.5
2018-Jan-18 09:30N 40°39' W 074°04'1 2.2
2018-Jan-18 08:59N 40°40' W 074°04'3 5.0
2018-Jan-18 08:21N 40°39' W 074°08'1 0.6
2018-Jan-18 06:08N 40°38' W 074°10'110.3
2018-Jan-18 06:00N 40°39' W 074°08'0 0.6
2018-Jan-18 05:30N 40°39' W 074°08'3 5.3
2018-Jan-18 05:00N 40°41' W 074°08'1 1.4
2018-Jan-18 04:27N 40°42' W 074°08'3 7.0
2018-Jan-18 04:00N 40°39' W 074°08'510.3
2018-Jan-18 03:31N 40°41' W 074°02'3 6.5
2018-Jan-18 03:00N 40°42' W 073°59'0 0.1
2018-Jan-18 02:30N 40°42' W 073°58'1 2.6
2018-Jan-18 02:00N 40°42' W 074°00'510.1
2018-Jan-18 01:30N 40°39' W 074°05'3 6.7
2018-Jan-18 01:00N 40°38' W 074°10'0 0.0
2018-Jan-18 00:01N 40°38' W 074°10'0 0.0
2018-Jan-17 23:57N 40°38' W 074°10'  
2018-Jan-12 14:59N 40°39' W 074°09'3 6.0
2018-Jan-12 14:30N 40°39' W 074°05'2 3.9
2018-Jan-12 13:58N 40°38' W 074°03'0 0.3
2018-Jan-12 13:30N 40°38' W 074°03'4 8.2
2018-Jan-12 12:59N 40°39' W 074°08'1 2.1
2018-Jan-12 12:30N 40°38' W 074°10'1 2.5
2018-Jan-12 11:59N 40°39' W 074°09'1 1.7
2018-Jan-12 11:30N 40°40' W 074°08'2 4.2
2018-Jan-12 11:00N 40°39' W 074°06'1 1.9
2018-Jan-12 10:30N 40°39' W 074°05'0 0.0
2018-Jan-12 10:00N 40°39' W 074°05'0 0.7
2018-Jan-12 09:30N 40°39' W 074°05'2 3.6
2018-Jan-12 09:00N 40°38' W 074°03'0 0.2
2018-Jan-12 08:30N 40°38' W 074°03'4 7.5
2018-Jan-12 08:00N 40°39' W 074°08'2 3.1
2018-Jan-12 07:30N 40°38' W 074°10'0 0.0
2018-Jan-12 06:59N 40°38' W 074°10'0 0.0
2018-Jan-12 06:30N 40°38' W 074°10'0 0.0
2018-Jan-12 06:00N 40°38' W 074°10'0 0.0
2018-Jan-12 05:30N 40°38' W 074°10'0 0.0
2018-Jan-12 05:00N 40°38' W 074°10'0 0.0
2018-Jan-12 04:30N 40°38' W 074°10'0 0.2
2018-Jan-12 04:00N 40°38' W 074°10'2 4.1
2018-Jan-12 03:30N 40°39' W 074°07'1 1.6
2018-Jan-12 02:59N 40°39' W 074°08'2 0.6
2018-Jan-11 23:31N 40°39' W 074°11'1 7.6
2018-Jan-11 23:20N 40°39' W 074°09'0 0.3
2018-Jan-11 21:53N 40°39' W 074°08'1 2.8
2018-Jan-11 21:30N 40°40' W 074°09'1 2.2
2018-Jan-11 20:58N 40°41' W 074°09'0 0.9
2018-Jan-11 20:28N 40°40' W 074°08'2 3.6
2018-Jan-11 19:59N 40°39' W 074°08'2 1.4
2018-Jan-11 18:22N 40°41' W 074°08'3 1.6
2018-Jan-11 16:43N 40°38' W 074°09'2 8.9
2018-Jan-11 16:30N 40°39' W 074°07'2 4.4
2018-Jan-11 16:00N 40°38' W 074°04'1 2.5
2018-Jan-11 15:29N 40°39' W 074°06'1 0.9
2018-Jan-11 14:35N 40°39' W 074°07'2 0.9
2018-Jan-11 12:28N 40°38' W 074°09'4 7.6
2018-Jan-11 12:00N 40°39' W 074°05'4 7.7
2018-Jan-11 11:30N 40°41' W 074°01'2 3.9
2018-Jan-11 11:00N 40°42' W 073°58'0 0.4
2018-Jan-11 10:30N 40°42' W 073°59'2 4.4
2018-Jan-11 10:00N 40°42' W 074°01'3 5.5
2018-Jan-11 09:30N 40°39' W 074°03'2 3.7
2018-Jan-11 09:00N 40°39' W 074°06'3 0.5
2018-Jan-11 03:12N 40°38' W 074°09'2 8.4
2018-Jan-11 02:58N 40°39' W 074°07'0 0.1
2018-Jan-11 02:29N 40°39' W 074°07'1 1.6
2018-Jan-11 01:51N 40°39' W 074°05'2 5.1
2018-Jan-11 01:30N 40°38' W 074°03'1 1.8
2018-Jan-11 01:00N 40°39' W 074°04'  

Dump ship's entire track history